Location: Kuppenheim
(48.8299°N, 8.2568°E)
Time: 14:09:41
(UTC+00:00)

FALCON 9 DEB - Visible Passes

Search period start: 22 October 2021 00:00
Search period end: 01 November 2021 00:00
Orbit: 353 x 366 km, 53.0° (Epoch: 21 October)

Date Brightness Start Highest point End Pass type
(mag) Time Alt. Az. Time Alt. Az. Time Alt. Az.
26 Oct 4.4 17:53:24 10° SSW 17:55:10 21° SSE 17:55:10 21° SSE visible
27 Oct 5.2 16:48:57 10° SE 16:49:28 10° SE 16:49:58 10° ESE visible
27 Oct 4.4 18:21:19 10° SW 18:23:01 30° SW 18:23:01 30° SW visible
28 Oct 4.0 17:15:01 10° SSW 17:17:36 27° SE 17:18:59 19° E visible
28 Oct 5.7 18:49:52 10° W 18:50:42 17° W 18:50:42 17° W visible
29 Oct 2.6 17:42:58 10° WSW 17:45:56 73° SSE 17:46:32 51° E visible
30 Oct 3.6 18:11:27 10° W 18:13:57 47° NW 18:13:57 47° NW visible
31 Oct 2.7 17:04:24 10° WSW 17:07:22 84° SSE 17:09:33 17° ENE visible
31 Oct 5.5 18:40:07 10° WNW 18:41:15 19° WNW 18:41:15 19° WNW visible
